Flag for Namibia Weather past 2 weeks in Windhoek, Namibia

Now
66 °F

Clear.


Feels Like: 66 °F
Forecast: 48 / 74 °F
Wind: 7 mph from East

Location: Windhoek

Current Time: Jul 28, 2014 at 6:07:02 PM

Latest Report: Jul 28, 2014 at 5:00 PM


Visibility: 10 mi

Pressure: 30.30 "Hg

Humidity: 12%

Dew point: 12 °F

Location of WindhoekLocation

Historic Weather in Windhoek — Graph

°F

Windhoek temperature yesterday

Maximum temperature yesterday: 64 °F (at 1:00 PM)
Minimum temperature yesterday: 37 °F (at 6:00 AM)
Average temperature yesterday: 50 °F

Past Weeks' High & Low Weather Summary

 TemperatureHumidityPressure
High84 °F (Jul 14, 1:00 PM)81% (Jul 26, 5:00 AM)30.42 "Hg (Jul 26, 5:00 AM)
Low32 °F (Jul 26, 2:00 AM)5% (Jul 25, 3:00 PM)30.15 "Hg (Jul 18, 2:00 PM)
Average58 °F28%30.31 "Hg
* Reported Jul 13 5:00 PM — Jul 28 5:00 PM, Windhoek, Weather by CustomWeather, © 2014

Note: Actual official high and low records may vary slightly from our data, if they occured in-between our weather recording intervals... More about our weather records

Advertising

Windhoek weather history for previous 24 hours

 ConditionsComfort  
Time TempWeatherWind HumidityBarometerVisibility
5:00 PM
Jul 28
66 °FClear.7 mph12%30.30 "Hg10 mi
4:00 PM70 °FSunny.6 mph11%30.27 "Hg10 mi
3:00 PM70 °FSunny.6 mph10%30.27 "Hg10 mi
1:00 PM70 °FSunny.6 mph8%30.33 "Hg10 mi
12:00 PM68 °FSunny.3 mph10%30.36 "Hg10 mi
11:00 AM66 °FSunny.7 mph12%30.36 "Hg10 mi
10:00 AM61 °FSunny.10 mph15%30.42 "Hg10 mi
9:00 AM55 °FSunny.9 mph19%30.39 "Hg10 mi
8:00 AM46 °FSunny.8 mph25%30.39 "Hg10 mi
7:00 AM41 °FSunny.9 mph31%30.39 "Hg10 mi
6:00 AM41 °FSunny.8 mph31%30.36 "Hg10 mi
5:00 AM41 °FQuite cool.9 mph31%30.33 "HgN/A
4:00 AM43 °FQuite cool.10 mph26%30.36 "HgN/A
3:00 AM43 °FQuite cool.9 mph26%30.36 "HgN/A
2:00 AM43 °FQuite cool.9 mph26%30.36 "HgN/A
1:00 AM45 °FQuite cool.12 mph23%30.36 "HgN/A
12:00 AM46 °FCool.12 mph21%30.36 "HgN/A
11:00 PM
Jul 27
48 °FCool.13 mph20%30.39 "HgN/A
10:00 PM48 °FCool.10 mph18%30.39 "HgN/A
9:00 PM48 °FCool.10 mph18%30.36 "HgN/A
8:00 PM50 °FCool.9 mph16%30.36 "HgN/A
7:00 PM52 °FClear.8 mph15%30.36 "Hg10 mi
6:00 PM55 °FClear.6 mph14%30.33 "Hg10 mi
Weather by CustomWeather, © 2014

See weather overviewHow to use our weather pages